Weather in Bagdarin

Russia / Republic of Buryatia     54°26′38″N   113°35′31″E
temp.,
°C
wind,
m/s
gust,
m/s
humid.,
%
clouds,
%
prec.,
mm/h
press.,
hPa
HPBL,
m
1 july, fri
fri123:00+17nnw016849 0.0 100411
02:00+15nw00685 0.0 100511
05:00+15nne007416 0.0 100511
08:00+19sse126858 0.4 1005225
11:00+25s34495 0.1 10041410
14:00+25ssw4644100 0.5 10021748
17:00+19wsw117898 2.4 1004144
20:00+18n11775 2.4 100312
2 july, sat
sat223:00+14wnw1192100 1.1 100511
02:00+13e0094100 1.4 100411
05:00+13nw00941 0.0 100411
08:00+19s11740 0.0 1003397
11:00+25s22475 0.0 10011417
14:00+28s24292 0.0 9992707
17:00+28wnw132798 0.0 9982529
20:00+21nne115699 0.0 99911
3 july, sun
sun323:00+17n115965 0.0 100111
02:00+16nne11644 0.0 100112
05:00+15nne11756 0.0 100111
08:00+22ese125652 0.0 999351
11:00+25sse3450100 0.1 9991036
14:00+25wsw3553100 0.4 9971071
17:00+17nw348916 15.5 998183
20:00+17w119035 15.9 99935
4 july, mon
mon423:00+14ene1196100 0.0 100114
02:00+14n119498 0.1 100011
05:00+15nne1196100 0.6 100035
08:00+16e1196100 1.5 1000178
11:00+16e1398100 2.1 999286
14:00+15se2399100 11.3 998244
17:00+15ne1198100 4.9 998113
20:00+15nw129797 6.9 99971
5 july, tue
tue523:00+14nw229761 0.1 100055
02:00+12nw239794 0.1 100155
05:00+11nnw22962 0.0 100149
08:00+16nw23778 0.0 1001623
11:00+20nnw335971 0.0 10001403
14:00+21nnw2155100 0.1 10001553
17:00+19nnw1276100 0.2 100097
20:00+16n3386100 0.5 100058